EW9427 Weather Reports


time (UTC)temp
C
wind
direction
speed
KPH
gust
KPH
rain 1hr
cm
rain 24hr
cm
rain mn
cm
humidity
%
barometer
mb
20220811224520 35 278 9.7 25.7 0.00 0.00 0.00 21 1016.8
20220811223019 35 263 3.2 24.1 0.00 0.00 0.00 21 1016.7
20220811221521 35 271 9.7 32.2 0.00 0.00 0.00 20 1016.7
20220811220014 34 271 14.5 38.6 0.00 0.00 0.00 24 1016.7
20220811214518 34 278 8.0 29.0 0.00 0.00 0.00 25 1016.9
20220811213010 33 246 11.3 30.6 0.00 0.00 0.00 25 1017.0
20220811211526 33 334 14.5 27.4 0.00 0.00 0.00 25 1017.1
20220811210009 33 225 6.4 17.7 0.00 0.00 0.00 27 1017.1
20220811204508 33 279 12.9 30.6 0.00 0.00 0.00 27 1017.2
20220811203003 33 273 8.0 25.7 0.00 0.00 0.00 27 1017.3
20220811201603 32 292 16.1 30.6 0.00 0.00 0.00 28 1017.2
20220811200107 32 287 11.3 29.0 0.00 0.00 0.00 29 1017.5
20220811194600 32 265 4.8 24.1 0.00 0.00 0.00 29 1017.5
20220811193054 32 277 11.3 22.5 0.00 0.00 0.00 30 1017.6
20220811191603 31 290 4.8 30.6 0.00 0.00 0.00 32 1017.7
20220811190051 31 277 6.4 20.9 0.00 0.00 0.00 32 1017.9
20220811184547 31 294 6.4 19.3 0.00 0.00 0.00 32 1017.9
20220811183043 30 248 4.8 14.5 0.00 0.00 0.00 34 1018.1
20220811181550 29 278 8.0 22.5 0.00 0.00 0.00 36 1018.2
20220811180039 28 292 6.4 19.3 0.00 0.00 0.00 37 1018.4
20220811174601 28 271 8.0 19.3 0.00 0.00 0.00 36 1018.2
20220811173031 28 310 11.3 20.9 0.00 0.00 0.00 37 1018.3
20220811171535 28 294 4.8 14.5 0.00 0.00 0.00 40 1018.3
20220811170041 27 292 1.6 12.9 0.00 0.00 0.00 43 1018.4
20220811164521 27 281 4.8 16.1 0.00 0.00 0.00 45 1018.4
20220811163021 27 229 3.2 14.5 0.00 0.00 0.00 44 1018.4
20220811161518 26 259 1.6 11.3 0.00 0.00 0.00 45 1018.6
20220811160015 26 210 6.4 16.1 0.00 0.00 0.00 47 1018.7
20220811154532 25 221 9.7 16.1 0.00 0.00 0.00 48 1018.8
20220811153013 25 205 9.7 16.1 0.00 0.00 0.00 49 1018.8
20220811151507 23 316 0.0 4.8 0.00 0.00 0.00 57 1018.9
20220811150010 22 315 0.0 3.2 0.00 0.00 0.00 64 1019.0
20220811144503 21 316 0.0 4.8 0.00 0.00 0.00 68 1019.1
20220811143102 20 316 0.0 4.8 0.00 0.00 0.00 69 1019.2
20220811141606 20 317 1.6 6.4 0.00 0.00 0.00 69 1019.2
20220811140111 20 317 0.0 6.4 0.00 0.00 0.00 72 1019.2
20220811134554 19 228 0.0 4.8 0.00 0.00 0.00 74 1019.2
20220811133049 18 228 0.0 9.7 0.00 0.00 0.00 76 1019.1
20220811131552 17 195 3.2 4.8 0.00 0.00 0.00 78 1019.1
20220811130050 17 145 0.0 4.8 0.00 0.00 0.00 80 1019.2
20220811124607 17 145 0.0 0.0 0.00 0.00 0.00 79 1019.0
20220811123055 17 145 3.2 4.8 0.00 0.00 0.00 78 1018.8
20220811121558 17 145 3.2 8.0 0.00 0.00 0.00 76 1018.8
20220811120038 18 162 4.8 6.4 0.00 0.00 0.00 72 1018.7
20220811114530 18 117 4.8 11.3 0.00 0.00 0.00 72 1018.6
20220811113038 18 54 3.2 6.4 0.00 0.00 0.00 71 1018.6
20220811111525 19 53 0.0 0.0 0.00 0.00 0.00 70 1018.6
20220811110022 20 54 0.0 0.0 0.00 0.00 0.00 68 1018.5
20220811104528 20 53 0.0 1.6 0.00 0.00 0.00 67 1018.6
20220811103030 21 54 0.0 1.6 0.00 0.00 0.00 62 1018.5
20220811101526 21 63 0.0 3.2 0.00 0.00 0.00 61 1018.5
20220811100014 21 63 0.0 3.2 0.00 0.00 0.00 62 1018.5
20220811094515 21 63 0.0 6.4 0.00 0.00 0.00 63 1018.6
20220811093011 21 63 6.4 8.0 0.00 0.00 0.00 63 1018.5
20220811091512 21 36 4.8 8.0 0.00 0.00 0.00 64 1018.7
20220811090013 22 284 0.0 1.6 0.00 0.00 0.00 61 1018.9
20220811084503 22 284 0.0 4.8 0.00 0.00 0.00 61 1018.9
20220811083109 22 284 0.0 3.2 0.00 0.00 0.00 58 1019.0
20220811081557 23 284 4.8 8.0 0.00 0.00 0.00 54 1019.1
20220811080137 24 281 3.2 14.5 0.00 0.00 0.00 50 1019.2
20220811074604 23 302 3.2 8.0 0.00 0.00 0.00 52 1019.1
20220811073141 24 337 1.6 6.4 0.00 0.00 0.00 50 1019.1
20220811071608 24 344 6.4 9.7 0.00 0.00 0.00 48 1019.1
20220811070125 24 302 3.2 12.9 0.00 0.00 0.00 49 1019.1
20220811064552 23 296 0.0 11.3 0.00 0.00 0.00 52 1019.2
20220811063106 23 321 1.6 6.4 0.00 0.00 0.00 53 1019.1
20220811061549 23 355 0.0 12.9 0.00 0.00 0.00 53 1019.0
20220811060153 24 360 6.4 14.5 0.00 0.00 0.00 53 1019.0
20220811054611 24 294 4.8 11.3 0.00 0.00 0.00 52 1019.0
20220811053046 25 319 6.4 12.9 0.00 0.00 0.00 50 1019.1
20220811051541 25 304 3.2 17.7 0.00 0.00 0.00 48 1019.0
20220811050038 26 321 11.3 20.9 0.00 0.00 0.00 45 1018.9
20220811044550 25 351 11.3 16.1 0.00 0.00 0.00 46 1019.0
20220811043038 26 310 4.8 24.1 0.00 0.00 0.00 42 1018.7
20220811041536 26 286 14.5 24.1 0.00 0.00 0.00 43 1018.6
20220811040058 27 292 19.3 33.8 0.00 0.00 0.00 42 1018.3
20220811034536 28 284 17.7 30.6 0.00 0.00 0.00 37 1018.5
20220811033047 28 285 8.0 17.7 0.00 0.00 0.00 33 1018.7
20220811030042 28 213 3.2 6.4 0.00 0.00 0.00 34 1018.3
20220811024532 28 213 0.0 0.0 0.00 0.00 0.00 34 1018.1
20220811023037 29 213 0.0 0.0 0.00 0.00 0.00 32 1018.0
20220811021545 30 213 0.0 3.2 0.00 0.00 0.00 32 1017.9
20220811020034 30 213 1.6 8.0 0.00 0.00 0.00 31 1017.9
20220811014524 31 209 6.4 12.9 0.00 0.00 0.00 30 1017.9
20220811013049 31 197 6.4 14.5 0.00 0.00 0.00 30 1017.8
20220811011548 31 194 9.7 19.3 0.00 0.00 0.00 30 1017.7
20220811010050 31 161 11.3 16.1 0.00 0.00 0.00 30 1017.6
20220811004527 31 192 9.7 20.9 0.00 0.00 0.00 29 1017.8
20220811003021 31 165 14.5 24.1 0.00 0.00 0.00 29 1017.7
20220811001526 32 173 20.9 29.0 0.00 0.00 0.00 29 1017.7
20220811000018 32 152 19.3 27.4 0.00 0.00 0.00 29 1017.8
20220810234519 32 184 19.3 32.2 0.00 0.00 0.00 28 1017.8
20220810233020 32 147 19.3 27.4 0.00 0.00 0.00 27 1017.6
20220810231516 33 173 11.3 27.4 0.00 0.00 0.00 27 1017.6
20220810230039 33 144 9.7 22.5 0.00 0.00 0.00 27 1017.5